TimeEDT,TemperatureF,Dew PointF,Humidity,Sea Level PressureIn,VisibilityMPH,Wind Direction,Wind SpeedMPH,Gust SpeedMPH,PrecipitationIn,Events,Conditions,WindDirDegrees,DateUTC
12:53 AM,81.0,72.0,74,30.12,10.0,East,3.5,-,N/A,,Partly Cloudy,100,2013-05-10 04:53:00
1:53 AM,81.0,72.0,74,30.11,10.0,East,5.8,-,N/A,,Partly Cloudy,100,2013-05-10 05:53:00
2:53 AM,81.0,72.0,74,30.08,10.0,East,3.5,-,N/A,,Scattered Clouds,100,2013-05-10 06:53:00
3:18 AM,82.4,71.6,70,30.07,10.0,ESE,3.5,-,N/A,,Mostly Cloudy,110,2013-05-10 07:18:00
3:33 AM,82.4,71.6,70,30.07,10.0,Calm,Calm,-,N/A,,Overcast,0,2013-05-10 07:33:00
3:48 AM,82.4,71.6,70,30.06,10.0,East,3.5,-,N/A,,Overcast,90,2013-05-10 07:48:00
4:06 AM,80.6,71.6,74,30.06,10.0,Calm,Calm,-,N/A,,Scattered Clouds,0,2013-05-10 08:06:00
4:53 AM,81.0,72.0,74,30.04,10.0,ESE,3.5,-,N/A,,Clear,110,2013-05-10 08:53:00
5:53 AM,81.0,72.0,74,30.06,10.0,Calm,Calm,-,N/A,,Mostly Cloudy,0,2013-05-10 09:53:00
6:53 AM,81.0,72.0,74,30.06,10.0,East,3.5,-,N/A,,Clear,100,2013-05-10 10:53:00
8:33 AM,84.2,71.6,66,30.08,10.0,ESE,4.6,-,N/A,,Mostly Cloudy,120,2013-05-10 12:33:00
8:41 AM,84.2,71.6,66,30.08,10.0,Variable,5.8,-,N/A,,Scattered Clouds,0,2013-05-10 12:41:00
8:53 AM,84.9,72.0,65,30.09,10.0,Variable,3.5,-,N/A,,Scattered Clouds,0,2013-05-10 12:53:00
9:53 AM,86.0,71.1,61,30.09,10.0,ESE,4.6,-,N/A,,Clear,120,2013-05-10 13:53:00
10:53 AM,87.1,72.0,61,30.10,10.0,SE,5.8,-,N/A,,Clear,130,2013-05-10 14:53:00
11:53 AM,88.0,72.0,59,30.10,10.0,SE,5.8,-,N/A,,Clear,130,2013-05-10 15:53:00
12:53 PM,88.0,71.1,57,30.08,10.0,SE,5.8,-,N/A,,Clear,140,2013-05-10 16:53:00
1:53 PM,88.0,73.9,63,30.06,10.0,Variable,4.6,-,N/A,,Clear,0,2013-05-10 17:53:00
2:53 PM,90.0,73.9,59,30.06,10.0,SE,5.8,-,N/A,,Clear,140,2013-05-10 18:53:00
3:53 PM,89.1,72.0,57,30.05,10.0,ESE,8.1,-,N/A,,Clear,110,2013-05-10 19:53:00
4:53 PM,88.0,72.0,59,30.02,10.0,SSE,6.9,-,N/A,,Clear,150,2013-05-10 20:53:00
5:53 PM,87.1,71.1,59,30.03,10.0,ESE,8.1,-,N/A,,Clear,120,2013-05-10 21:53:00
6:53 PM,84.9,71.1,63,30.04,10.0,SE,6.9,-,N/A,,Clear,130,2013-05-10 22:53:00
7:53 PM,84.0,70.0,63,30.05,10.0,SE,5.8,-,N/A,,Clear,130,2013-05-10 23:53:00
8:53 PM,82.9,70.0,65,30.06,10.0,SE,5.8,-,N/A,,Clear,140,2013-05-11 00:53:00
9:53 PM,82.9,71.1,67,30.06,10.0,SE,5.8,-,N/A,,Clear,130,2013-05-11 01:53:00
10:53 PM,82.9,72.0,69,30.06,10.0,ESE,8.1,-,N/A,,Clear,120,2013-05-11 02:53:00
11:53 PM,82.9,72.0,69,30.07,10.0,SE,6.9,-,N/A,,Clear,130,2013-05-11 03:53:00